Preview of NWS' New Version of Forecast
This preview is not operational and should not be used for support decisions.

Regional Weather Roundup (RWR)

Issued by National Weather Service (NWS)

                            
000
ASUS44 KJAN 232010
RWRMS 

MISSISSIPPI HOURLY WEATHER ROUNDUP
NATIONAL WEATHER SERVICE JACKSON MS
300 PM CDT SUN JUN 23 2019

NOTE: "FAIR: INDICATES FEW OR NO CLOUDS BELOW 12,000 FEET WITH NO
SIGNIFICANT WEATHER AND/OR OBSTRUCTIONS TO VISIBILITY.

MSZ001>002-007>008-010>013-018>021-025>028-034>036-232100-
NORTHWEST MISSISSIPPI
  
CITY           SKY/WX    TMP DP  RH WIND       PRES   REMARKS
BATESVILLE     FAIR      90  73  58 S15G24    29.93F HX  98           
CLARKSDALE     MOSUNNY   91  77  62 S13G22    29.92F HX 105           
CLEVELAND      MOCLDY    90  76  62 S16G23    29.92F HX 101           
GREENWOOD      FAIR      92  72  51 SW16G22   29.95F HX  99           
GREENVILLE       N/A    N/A N/A N/A MISG      29.92F                  
OLIVE BRANCH   PTSUNNY   90  72  55 SW18G29   29.92F HX  96           
OXFORD         FAIR      90  72  55 SW14      29.97F HX  96           
TUNICA           N/A     90  72  55 S17G24    29.91F HX  96           
WINONA         MOCLDY    89  73  58 SW9       29.97F HX  97           
$$

MSZ003>006-009-014>017-022>024-029>033-037>039-232100-
NORTHEAST MISSISSIPPI
  
CITY           SKY/WX    TMP DP  RH WIND       PRES   REMARKS
ABERDEEN       FAIR      91  79  66 S10G20    29.99F HX 107           
COLUMBUS AFB   FAIR      92  74  55 SW10      29.98F HX 101           
CORINTH        FAIR      90  72  55 SW10G18   29.95F HX  96           
GOLDN TRIANGLE FAIR      91  74  57 SW10      29.99F HX 100           
STARKVILLE     FAIR      91  72  52 S6        29.99F HX  98           
TUPELO         FAIR      91  70  49 SW9G18    29.97F HX  96           
$$

MSZ040-058-232100-
CENTRAL MISSISSIPPI
  
CITY           SKY/WX    TMP DP  RH WIND       PRES   REMARKS
JACKSON INTL   FAIR      94  70  45 SW18      29.97F HX 100           
JACKSON HAWKNS FAIR      94  73  50 SW14      29.98F HX 103           
MADISON        FAIR      91  73  55 S9        29.97F HX 100           
MERIDIAN KEY   FAIR      94  72  48 S15       29.99F HX 102           
MERIDIAN NAS   FAIR      92  69  47 S9G16     30.00F HX  97           
RAYMOND          N/A     93  77  59 S12       29.97F HX 107           
VICKSBURG VKS  PTCLDY    91  77  62 SW8       29.96S HX 105           
$$

MSZ059>079-232100-
SOUTH MISSISSIPPI
  
CITY           SKY/WX    TMP DP  RH WIND       PRES   REMARKS
BROOKHAVEN     FAIR      93  73  52 E12       30.00F HX 102           
HATTIESBURG    FAIR      93  72  50 S10       30.00F HX 101           
LAUREL         MOCLDY    93  71  49 S12       29.99F HX 100           
MCCOMB         TSTM      88  77  69 SW3       29.98F HX 100           
NATCHEZ        FAIR      90  78  68 SW7       29.96F HX 104           
PINE BELT      FAIR      92  75  57 S12       30.01F HX 103           
$$

MSZ080>082-232100-
COASTAL MISSISSIPPI
  
CITY           SKY/WX    TMP DP  RH WIND       PRES   REMARKS
BILOXI         FAIR      91  78  65 S12       30.02F HX 106           
PASCAGOULA     FAIR      93  75  55 SW8       30.03F HX 104           
GULFPORT       PTSUNNY   90  78  68 S14G22    30.01F HX 104           
$$

LAZ007>009-015>016-023>026-232100-
NORTHEAST LOUISIANA
  
CITY           SKY/WX    TMP DP  RH WIND       PRES   REMARKS
BASTROP        FAIR      93  74  53 S7        29.92F HX 102           
TALLULAH/VBURG FAIR      92  76  59 S8        29.95F HX 104           
VIDALIA        FAIR      91  76  62 S13G20    29.94F HX 103           
$$